Temp_Advection
nan nan nan nan nan nan nan nan nan nan nan nan nan nan nan nan nan nan nan nan nan nan nan nan nan nan nan nan nan nan nan nan nan nan nan nan nan nan nan nan nan nan nan
nan -0 -0 1 1 0 0 0 0 0 -0 0 0 0 0 0 0 0 0 -0 -0 -0 -0 0 0 -0 -0 0 -0 0 0 -0 0 0 0 0 -0 0 0 0 0 0 nan
nan 0 0 0 0 0 0 -0 0 0 -0 0 0 0 0 -0 -0 -0 0 0 -0 -0 0 0 0 -0 -0 -0 0 0 0 0 0 0 0 0 0 0 0 0 -0 0 nan
nan 1 0 -0 -0 0 -0 -0 0 -0 -0 0 0 0 0 0 0 0 0 0 0 0 0 0 0 0 0 -0 0 0 0 0 0 0 0 0 0 0 0 0 -0 -0 nan
nan 0 0 0 0 -0 -0 -0 0 0 0 0 0 0 0 0 0 -0 -0 0 0 0 0 0 -0 -0 -0 -0 -0 -0 0 1 1 -0 0 0 0 0 0 0 0 0 nan
nan 0 0 0 -0 -0 0 0 -0 -0 -1 -0 -1 -0 0 -0 -0 -0 -0 -0 0 -0 -0 -0 -0 0 -0 -0 0 0 -1 0 2 1 0 0 1 1 1 0 -0 0 nan
nan 0 0 0 0 -0 -0 0 0 0 -0 0 -1 0 0 0 0 0 0 -0 -0 -1 -0 0 0 1 0 -1 -1 1 1 1 1 1 0 1 0 -0 0 0 0 0 nan
nan 0 0 0 -0 0 0 -0 0 0 0 0 0 0 0 1 0 -1 -0 -0 -1 -1 0 1 1 1 -0 -1 -0 1 2 1 1 0 0 0 -1 -0 0 0 0 0 nan
nan 0 0 0 0 0 0 0 -0 -0 0 -0 0 -0 -0 -0 -0 -1 -0 -0 -0 -0 -0 0 1 0 -1 -0 2 1 1 1 1 0 0 -0 -0 -0 0 0 0 1 nan
nan -0 -0 0 0 0 0 -0 -0 -0 -0 -0 0 -0 -0 -0 -0 -0 -0 -0 -0 -0 -0 0 -0 -0 1 2 1 0 1 0 0 0 0 0 0 0 0 0 1 1 nan
nan -0 -0 0 0 0 0 0 0 0 0 0 0 0 0 -0 -1 -0 -0 -0 -0 -0 0 -0 1 1 1 1 0 0 0 0 0 0 0 -0 -0 -0 0 0 0 1 nan
nan -0 -0 -0 -0 0 0 -0 -0 -0 -0 -0 0 0 -0 -0 0 0 -1 -0 -0 -0 0 1 1 1 1 0 0 0 0 0 0 0 -0 -0 0 0 0 1 1 1 nan
nan -0 -0 -0 -0 -0 -0 -0 -0 -0 -0 -0 -0 -0 -0 0 0 -0 -0 -0 -0 0 1 1 1 0 0 0 1 0 0 0 -0 -0 -0 0 0 0 1 0 1 1 nan
nan -0 -0 -0 -0 -0 -0 -0 -1 -1 -1 -0 -0 -0 -0 -0 -0 -0 -0 0 0 0 1 1 0 -0 0 1 1 0 0 -0 -0 0 0 0 0 1 0 1 1 1 nan
nan -0 -0 -0 -1 -1 -1 -1 -1 -1 -1 -1 -1 -1 -1 -0 -0 -0 -0 -0 -0 0 1 1 -0 0 1 0 0 -0 -0 -0 0 1 0 0 0 1 1 1 1 1 nan
nan -0 -0 -0 -0 -1 -1 -1 -1 -1 -1 -1 -1 -1 -1 -1 -1 -1 -0 -0 -0 -0 1 1 0 0 0 1 0 -0 0 1 1 1 0 0 1 1 1 1 1 1 nan
nan -1 -1 -1 -0 0 -0 0 0 -0 -0 -1 -1 -1 -1 -0 -1 -1 -1 -1 -0 0 0 0 0 0 1 1 0 0 1 1 1 1 0 0 1 1 2 1 1 0 nan
nan -1 -0 -1 -1 -1 -1 -0 1 1 0 0 -0 -1 -1 -2 -1 -0 -1 -1 -1 -1 -1 1 1 0 0 0 -0 0 1 1 1 0 0 0 1 1 1 1 1 1 nan
nan -1 -1 -1 -0 -1 -2 -3 -2 -0 1 0 -0 -1 -1 -1 -1 -2 -2 -0 0 -0 -1 -1 -0 0 0 -0 0 1 1 1 1 0 0 0 1 1 2 2 1 0 nan
nan 0 -0 -0 -1 -1 -1 -2 -2 -2 -2 -1 1 1 -1 -1 -1 -1 -1 -1 -2 -1 1 0 -0 -0 0 1 0 0 1 1 0 -0 0 1 1 2 2 1 1 -0 nan
nan 0 0 0 0 -0 -0 -1 -1 -1 -1 -2 -2 -2 -0 0 -0 -1 -1 -1 -1 -2 -1 1 1 -0 -0 0 0 0 0 0 0 0 1 1 2 2 1 1 0 -0 nan
nan -0 -0 0 1 0 -1 -1 -1 -0 -1 -1 -1 -1 -1 -1 0 -0 -1 -1 -1 -1 -0 -0 0 1 0 -0 -0 0 0 1 0 1 1 1 2 2 1 1 0 -0 nan
nan -0 -0 -0 -1 0 -0 -1 -1 -1 -1 -1 -1 -1 -1 -0 -0 -0 -1 -1 -1 -1 0 0 -0 -0 1 0 -0 0 1 1 1 1 1 1 2 1 1 0 -0 -0 nan
nan 0 -0 -0 -0 -0 -0 0 0 0 -0 -1 -1 -1 -1 -1 -0 -1 -1 -1 -1 -0 0 0 0 -1 -0 -0 -1 0 0 -0 1 1 1 1 1 1 1 -0 -0 0 nan
nan 0 1 -0 -0 -1 -1 -1 -0 0 0 -1 -1 -1 -1 -1 -1 -0 -0 -1 -1 -0 0 0 0 -1 -1 -2 -0 0 1 1 1 2 1 1 1 0 -0 -1 -0 0 nan
nan nan nan nan nan nan nan nan nan nan nan nan nan nan nan nan nan nan nan nan nan nan nan nan nan nan nan nan nan nan nan nan nan nan nan nan nan nan nan nan nan nan nan
Wind_Speed
17 19 14 22 21 22 18 18 19 20 23 25 32 33 30 27 26 27 26 23 24 21 20 18 14 14 12 9 12 11 14 13 16 13 17 13 11 10 13 17 17 14 10
14 17 12 16 15 14 17 20 23 26 26 24 23 25 28 24 25 25 25 23 22 21 18 18 20 20 20 18 12 11 14 14 16 17 16 13 14 18 16 11 8 11 12
8 10 13 9 8 14 4 19 30 30 27 28 25 22 21 21 21 20 21 21 20 21 20 19 17 17 15 14 15 17 18 19 20 20 14 9 8 12 10 8 11 9 12
16 19 15 11 1 9 11 10 27 39 27 20 24 22 15 19 22 17 16 15 17 18 19 19 15 15 13 15 13 10 11 17 22 23 26 15 12 8 7 8 9 12 12
22 17 8 5 8 6 5 22 26 36 36 21 14 14 12 11 7 12 13 16 17 21 17 16 15 14 19 15 15 14 11 15 22 22 27 22 17 23 16 13 15 16 13
21 17 14 11 14 8 15 24 22 19 28 39 28 24 19 19 16 7 17 19 19 22 22 22 21 23 24 22 19 18 18 15 24 26 24 27 31 26 21 18 18 14 13
19 18 17 16 13 12 13 14 18 15 20 29 41 32 34 30 33 24 28 25 24 24 21 26 28 30 25 24 24 25 27 27 34 27 24 31 24 22 21 16 16 13 10
15 11 11 13 9 8 14 13 13 16 16 20 28 24 25 27 27 33 27 28 28 29 33 29 31 32 31 28 32 36 36 29 28 28 30 27 25 25 19 19 21 21 21
7 4 6 6 4 6 7 10 19 23 21 26 27 30 31 26 27 37 30 29 33 37 37 34 32 34 30 42 40 35 32 29 27 24 23 23 20 18 17 19 20 19 18
14 15 13 10 9 5 2 4 8 10 12 16 18 23 25 24 27 30 28 28 26 28 30 32 32 28 35 40 26 29 29 25 23 24 23 21 19 21 20 19 19 20 20
21 20 18 17 17 15 14 9 2 4 10 11 14 16 17 19 21 22 23 24 25 25 26 26 24 22 22 22 26 27 26 24 23 23 20 22 21 20 19 20 21 21 21
22 20 19 20 19 18 16 16 13 9 6 6 10 14 15 18 18 19 21 20 23 24 25 25 25 23 22 26 28 29 26 25 23 23 23 22 19 20 21 22 21 20 19
20 20 21 20 19 18 17 15 12 10 9 7 6 9 12 15 16 17 20 19 21 23 23 23 24 26 26 30 32 27 24 24 22 20 20 20 21 21 20 19 19 19 19
20 19 18 17 15 14 14 13 14 14 13 11 10 10 11 14 16 18 20 20 21 22 23 22 24 28 31 31 31 27 26 24 22 21 22 20 20 20 21 22 21 20 20
15 15 15 14 13 13 13 13 13 13 15 15 15 14 14 16 16 18 20 22 22 23 23 21 23 30 34 34 28 29 27 24 24 23 21 22 22 21 22 23 22 21 19
17 18 16 17 18 20 20 20 19 20 21 19 19 19 18 18 18 20 22 23 23 23 24 24 27 29 34 36 29 30 28 26 26 25 24 22 20 21 22 22 23 22 19
21 23 23 24 23 23 24 24 24 24 25 24 25 26 24 22 22 23 23 26 26 26 26 27 29 31 33 33 31 31 30 28 27 25 23 21 21 21 21 21 20 19 17
21 20 21 23 25 27 27 28 28 29 29 30 29 26 25 28 28 25 27 26 28 30 31 31 31 32 33 31 31 31 29 27 26 25 24 22 21 20 20 19 19 17 17
14 16 19 21 22 20 22 27 31 33 34 33 31 32 30 27 25 28 30 29 28 30 34 34 34 34 34 33 34 33 31 30 28 26 24 23 21 21 20 20 17 17 16
5 11 14 15 16 16 18 21 23 26 29 32 35 35 32 34 36 34 29 30 32 32 29 35 38 38 37 36 36 36 33 31 29 27 26 23 20 19 19 18 17 17 15
11 11 11 13 13 14 16 16 19 22 24 29 32 36 40 42 38 37 35 33 32 35 33 30 36 39 40 39 38 37 34 33 31 29 26 23 20 19 19 19 18 16 16
17 20 22 23 24 22 22 22 24 25 27 26 30 33 36 38 42 38 39 35 33 36 39 34 31 37 41 40 38 38 35 34 33 29 25 20 21 19 19 21 19 20 17
20 23 25 27 27 26 27 33 33 33 31 31 34 33 32 33 33 34 37 34 32 34 38 40 36 34 40 42 39 38 36 36 32 27 23 20 20 19 22 22 22 18 17
23 25 28 28 28 28 30 30 31 32 34 36 36 34 32 33 30 30 33 33 34 33 36 37 37 35 35 46 42 40 37 38 34 28 27 21 18 19 21 22 21 19 19
24 26 29 28 27 32 32 32 32 33 37 37 37 35 31 29 30 27 30 32 35 35 36 40 41 40 38 47 46 45 45 43 37 32 26 24 23 24 25 22 20 20 21
24 26 28 26 26 30 31 33 31 32 37 38 37 37 36 33 32 27 31 30 31 33 28 36 42 38 34 40 48 46 44 42 39 33 30 28 26 25 24 24 23 23 22
Wind_Direction
268 278 250 251 231 243 250 245 207 188 173 194 189 192 192 190 187 189 194 196 198 202 199 193 187 204 227 234 226 229 225 232 210 232 237 235 253 237 235 262 271 266 273
280 258 226 228 221 254 225 214 185 180 181 196 194 193 195 194 198 201 202 202 202 201 204 202 197 203 210 215 224 230 244 235 229 227 232 240 228 218 245 269 276 268 286
259 185 175 178 188 252 284 215 206 184 192 191 184 186 190 189 197 200 201 200 205 205 205 202 206 214 219 226 229 221 229 236 238 235 226 216 203 209 223 270 294 293 292
155 125 107 55 189 252 270 239 199 185 181 176 184 181 185 196 200 199 204 209 211 208 215 215 220 225 233 243 246 249 261 270 262 241 230 223 184 169 188 231 258 278 277
160 143 134 120 48 30 244 226 199 192 198 188 193 188 172 198 201 232 219 222 223 224 223 224 226 234 246 260 258 265 302 283 275 258 232 213 224 235 224 242 261 273 273
150 136 143 108 131 92 78 135 173 182 198 222 236 248 252 250 250 272 250 246 226 223 231 245 247 250 261 268 283 274 268 275 259 268 242 215 229 233 241 259 259 253 272
148 144 157 154 154 165 110 115 140 150 192 223 235 257 253 263 254 255 264 250 245 244 240 256 252 252 266 269 271 279 278 249 252 252 249 238 236 248 250 239 234 234 225
134 155 183 206 213 210 213 206 197 194 192 180 204 209 218 247 239 249 259 244 253 244 282 262 256 249 255 265 263 256 268 250 245 247 249 247 249 253 254 245 246 250 248
119 132 151 159 200 213 217 217 223 226 234 237 233 231 245 240 236 235 249 253 257 256 255 249 262 258 249 251 263 250 246 233 240 238 236 244 237 240 246 245 247 244 241
86 81 74 72 71 78 139 212 230 234 231 227 234 238 247 253 250 250 253 251 251 249 248 255 255 249 242 245 230 237 231 232 234 233 234 239 238 248 245 244 244 248 251
76 72 69 66 65 62 62 61 38 267 251 244 237 242 245 254 258 256 254 250 249 251 254 251 248 240 218 214 221 221 222 221 231 242 238 242 239 240 243 251 256 258 256
74 68 61 57 51 50 50 52 50 36 5 303 264 252 248 246 252 249 258 256 254 255 257 253 244 233 222 213 220 218 224 232 232 235 233 236 236 246 255 254 255 257 257
64 59 50 44 39 36 29 30 28 22 17 355 318 287 274 266 260 252 255 258 256 257 256 252 245 229 224 218 216 225 230 230 226 224 227 238 250 253 257 259 258 253 248
53 47 46 36 28 16 14 5 6 357 350 339 332 313 293 282 274 268 266 263 260 257 254 250 244 231 229 222 224 227 224 221 220 220 237 243 253 256 256 252 249 246 251
42 31 21 12 2 357 349 341 346 339 327 323 318 310 303 294 286 280 275 271 266 263 258 250 238 234 229 228 221 226 222 221 225 234 238 245 250 251 253 250 250 247 248
6 358 346 333 335 337 332 326 323 317 312 310 310 307 303 295 287 278 274 271 267 262 257 247 242 238 237 234 223 223 222 227 235 232 239 245 246 250 252 257 252 257 252
345 340 333 330 325 323 326 326 322 314 312 309 304 300 296 290 287 283 276 266 263 261 256 248 240 242 240 236 226 222 224 234 230 237 245 244 247 250 245 244 245 243 250
327 326 326 323 323 324 326 318 315 311 308 304 301 298 301 294 289 285 281 277 268 258 253 250 245 239 238 231 222 226 233 234 236 240 243 245 247 250 249 244 244 247 246
312 315 306 308 307 306 301 304 305 304 303 304 304 301 297 291 285 284 282 279 275 270 259 251 245 241 236 226 222 227 233 231 236 238 241 245 249 249 246 239 242 242 232
305 281 294 297 304 311 309 307 304 302 295 292 294 296 294 289 287 280 275 274 272 269 266 260 252 245 240 232 227 226 225 228 231 234 239 245 246 239 236 236 232 237 224
306 301 292 297 302 295 303 305 306 299 300 298 293 289 287 286 282 284 282 271 265 263 259 256 256 249 241 236 233 229 227 228 228 234 236 237 245 239 227 224 226 224 221
316 315 320 325 330 336 330 322 317 308 304 304 306 304 297 292 285 282 279 274 265 257 253 250 246 248 242 237 232 232 229 228 228 230 232 231 237 230 220 222 222 217 212
322 324 327 330 337 330 328 330 331 332 322 315 314 312 306 298 291 272 272 267 261 257 242 246 245 240 244 236 233 232 228 229 227 225 224 224 229 219 216 216 215 215 217
330 333 331 330 329 330 329 329 328 325 325 324 322 322 312 309 292 274 266 265 261 256 238 235 235 243 238 239 228 224 222 225 225 218 217 215 215 218 217 207 209 212 220
333 330 329 326 322 329 330 330 330 328 327 327 325 323 321 307 301 287 275 269 263 261 245 241 236 236 237 238 233 224 219 220 218 212 210 206 205 204 208 209 208 211 214
326 324 322 321 320 329 329 332 329 327 326 326 327 327 323 314 298 289 286 278 269 263 260 252 248 249 256 248 239 227 223 221 213 206 207 205 207 210 213 212 210 211 214
Height
1447 1449 1447 1449 1453 1457 1457 1460 1461 1464 1472 1480 1479 1484 1488 1495 1501 1505 1509 1512 1516 1519 1522 1526 1530 1534 1535 1537 1540 1541 1543 1544 1549 1549 1551 1550 1552 1553 1553 1553 1553 1552 1552
1445 1444 1440 1445 1449 1450 1453 1457 1458 1466 1474 1482 1483 1484 1489 1494 1499 1503 1507 1510 1514 1517 1520 1524 1527 1530 1532 1535 1536 1539 1540 1541 1545 1546 1547 1547 1548 1548 1549 1550 1550 1550 1550
1444 1440 1440 1445 1445 1448 1452 1455 1460 1467 1473 1478 1482 1486 1490 1494 1499 1501 1505 1508 1512 1515 1517 1520 1523 1526 1529 1531 1533 1535 1538 1538 1541 1542 1544 1544 1542 1543 1545 1546 1547 1546 1547
1440 1440 1441 1446 1446 1449 1453 1455 1456 1462 1471 1475 1479 1481 1488 1491 1494 1499 1504 1506 1509 1512 1514 1517 1519 1523 1526 1530 1529 1531 1532 1535 1535 1536 1537 1539 1538 1540 1542 1541 1542 1544 1544
1440 1441 1444 1448 1448 1448 1449 1451 1455 1463 1467 1471 1477 1480 1483 1489 1493 1497 1499 1505 1505 1508 1511 1514 1517 1518 1525 1524 1524 1525 1525 1527 1532 1532 1530 1532 1535 1534 1536 1536 1536 1539 1541
1440 1441 1444 1447 1447 1453 1450 1444 1454 1459 1465 1468 1473 1478 1482 1485 1491 1492 1497 1499 1502 1504 1507 1509 1511 1514 1516 1516 1517 1518 1518 1516 1526 1526 1526 1527 1528 1529 1532 1534 1535 1535 1536
1438 1443 1446 1448 1451 1454 1455 1455 1456 1461 1464 1466 1472 1475 1480 1485 1488 1491 1495 1495 1496 1498 1499 1502 1503 1506 1508 1509 1509 1511 1514 1515 1518 1521 1522 1525 1525 1527 1527 1528 1531 1531 1531
1446 1447 1450 1453 1453 1453 1458 1459 1461 1461 1465 1467 1472 1474 1480 1483 1483 1489 1489 1490 1490 1491 1492 1494 1494 1496 1500 1500 1503 1503 1508 1507 1512 1515 1517 1519 1520 1523 1523 1525 1528 1528 1529
1449 1453 1453 1453 1454 1455 1459 1459 1462 1464 1465 1468 1473 1475 1476 1476 1479 1480 1482 1481 1483 1484 1485 1487 1487 1489 1490 1494 1497 1499 1501 1503 1506 1509 1512 1514 1515 1517 1518 1519 1521 1522 1522
1457 1456 1455 1455 1457 1461 1459 1457 1458 1460 1465 1467 1469 1471 1472 1472 1474 1476 1477 1476 1477 1478 1480 1481 1481 1480 1482 1486 1491 1493 1495 1498 1502 1505 1507 1509 1511 1512 1514 1515 1515 1517 1519
1457 1458 1462 1462 1460 1459 1457 1455 1457 1458 1462 1463 1466 1467 1468 1468 1469 1469 1468 1469 1469 1471 1473 1474 1473 1477 1477 1481 1483 1487 1490 1492 1496 1501 1502 1505 1506 1507 1507 1509 1511 1511 1514
1462 1463 1464 1460 1461 1460 1459 1460 1460 1463 1462 1463 1464 1465 1464 1464 1466 1467 1463 1464 1464 1466 1468 1470 1469 1470 1473 1474 1480 1482 1485 1487 1490 1494 1496 1501 1502 1503 1503 1504 1504 1505 1507
1466 1464 1461 1462 1464 1464 1464 1462 1463 1465 1464 1465 1465 1463 1461 1462 1462 1462 1461 1459 1461 1462 1463 1464 1466 1467 1467 1470 1473 1478 1480 1484 1485 1486 1492 1494 1495 1497 1498 1498 1499 1499 1501
1465 1466 1466 1467 1467 1469 1467 1467 1465 1464 1465 1467 1461 1460 1459 1459 1458 1456 1455 1455 1457 1458 1458 1458 1462 1463 1465 1465 1468 1473 1475 1479 1480 1481 1484 1487 1488 1490 1491 1492 1493 1494 1495
1470 1469 1468 1471 1472 1469 1468 1466 1467 1465 1464 1460 1459 1460 1457 1456 1452 1451 1452 1452 1452 1454 1454 1453 1455 1458 1458 1462 1460 1467 1471 1473 1475 1476 1479 1481 1481 1484 1486 1488 1487 1488 1489
1470 1471 1474 1475 1468 1465 1462 1462 1460 1458 1458 1457 1455 1453 1451 1448 1449 1450 1448 1446 1445 1448 1449 1450 1452 1452 1452 1455 1455 1460 1464 1469 1471 1473 1475 1477 1476 1478 1480 1479 1482 1481 1483
1472 1470 1465 1461 1465 1465 1461 1457 1454 1452 1452 1450 1449 1445 1446 1447 1445 1443 1442 1441 1440 1441 1442 1442 1443 1447 1448 1449 1452 1456 1458 1462 1464 1467 1469 1469 1471 1473 1474 1475 1477 1478 1476
1464 1462 1464 1462 1459 1452 1449 1446 1444 1444 1444 1443 1443 1441 1439 1437 1437 1435 1435 1436 1436 1434 1433 1434 1435 1437 1439 1442 1446 1450 1454 1456 1461 1460 1463 1464 1465 1465 1467 1470 1472 1473 1473
1468 1466 1465 1461 1460 1459 1456 1452 1445 1440 1438 1436 1433 1433 1431 1430 1428 1429 1428 1426 1427 1428 1428 1428 1427 1430 1431 1434 1437 1441 1447 1451 1454 1456 1457 1459 1460 1460 1461 1463 1468 1466 1467
1472 1472 1467 1467 1463 1458 1456 1452 1447 1442 1440 1433 1426 1428 1425 1423 1419 1418 1418 1418 1417 1416 1417 1420 1422 1422 1424 1429 1430 1431 1435 1440 1444 1448 1451 1452 1456 1456 1456 1457 1460 1464 1463
1468 1468 1468 1464 1457 1456 1454 1448 1444 1441 1436 1433 1427 1421 1416 1411 1408 1407 1405 1406 1407 1408 1405 1405 1413 1415 1416 1420 1423 1424 1426 1430 1435 1438 1442 1445 1450 1452 1450 1452 1452 1458 1462
1460 1456 1451 1447 1444 1441 1439 1436 1434 1431 1427 1422 1418 1413 1406 1400 1395 1393 1394 1396 1396 1396 1395 1394 1397 1402 1406 1413 1414 1419 1419 1423 1426 1429 1437 1437 1443 1445 1447 1449 1450 1455 1454
1452 1448 1444 1440 1438 1435 1431 1424 1420 1416 1413 1409 1405 1400 1394 1390 1387 1386 1384 1384 1383 1384 1383 1384 1385 1385 1396 1401 1407 1411 1413 1415 1418 1422 1426 1430 1437 1439 1443 1444 1445 1448 1452
1446 1443 1440 1436 1432 1430 1427 1424 1419 1414 1408 1401 1395 1389 1384 1380 1377 1376 1375 1374 1374 1374 1373 1374 1375 1377 1382 1391 1396 1401 1405 1408 1411 1413 1418 1422 1428 1435 1441 1438 1438 1441 1452
1446 1442 1438 1434 1431 1427 1422 1417 1412 1407 1401 1394 1388 1383 1378 1373 1368 1366 1365 1364 1365 1366 1365 1365 1368 1369 1371 1377 1383 1388 1393 1398 1401 1406 1411 1413 1419 1426 1434 1431 1431 1440 1446
1443 1440 1436 1432 1428 1423 1419 1414 1409 1403 1396 1388 1381 1375 1369 1364 1360 1357 1354 1353 1353 1354 1355 1357 1358 1359 1364 1370 1373 1378 1384 1390 1394 1398 1402 1407 1414 1418 1422 1424 1429 1435 1440